Lid_Strength_Index
-0 -0 -0 -0 -0 -0 -0 -0 -0 -1 -1 -1 -1 -1 -1 -1 -1 3 7 4 3 -1 0 7 7 8 7 8 9 10 12 14 13 13 11 11 10 10 9 9 9 9 8 7 4
-0 -0 -0 -0 -0 -0 -0 -0 -0 -0 -1 -1 -1 -1 -1 -1 4 6 1 -2 -1 -1 7 8 9 8 10 9 9 12 13 13 12 12 11 11 10 10 10 10 10 9 8 7 5
0 -0 -0 -0 -0 -0 -0 -0 -0 -0 -1 -1 -1 -1 -1 1 7 7 -1 -1 -2 2 6 7 8 9 10 10 10 12 14 13 11 10 10 10 11 10 10 11 10 9 9 7 5
-0 0 0 0 0 -0 -0 -0 -0 -0 -0 -1 -1 -1 -1 5 13 6 -1 -1 -1 5 7 8 9 10 11 12 10 12 12 12 10 10 10 11 11 11 11 10 9 9 8 7 5
-0 -0 0 0 0 -0 -0 -0 -0 -0 -0 -0 -1 -1 4 10 9 4 0 1 6 6 8 9 10 10 12 11 11 12 11 11 10 10 11 10 11 11 11 10 9 10 9 7 5
1 -0 -0 0 0 -0 -0 -0 -0 -0 -0 -0 -1 -1 6 13 5 4 5 6 6 7 9 9 10 9 10 11 12 11 11 11 10 10 10 11 11 11 10 10 10 10 10 9 7
2 1 0 -0 -0 -0 0 -0 -0 -0 -0 -0 -1 3 9 10 4 6 6 7 7 7 8 8 8 9 10 11 10 11 12 11 12 11 11 11 12 12 10 10 10 10 11 10 9
1 1 1 0 -0 -0 -0 -0 -0 -0 -1 -1 -1 6 11 6 5 6 7 7 7 7 7 7 7 8 9 10 11 12 13 14 12 11 11 11 14 11 11 11 10 11 11 11 10
1 2 1 1 1 0 -0 -0 -0 -0 -1 -1 5 8 12 3 6 5 7 7 7 8 8 7 8 10 10 12 14 14 16 15 13 11 12 12 13 11 11 12 11 11 11 11 11
1 1 1 1 1 1 1 -1 0 1 2 3 4 12 10 9 6 6 7 7 8 9 9 9 11 13 14 14 17 16 16 16 15 13 13 14 13 12 12 12 11 11 12 11 11
1 1 1 1 1 1 3 6 9 11 7 11 11 12 9 7 6 7 7 8 9 10 13 12 13 14 13 14 14 15 16 16 14 12 13 13 14 12 11 12 12 12 11 11 11
1 0 1 1 1 1 3 8 7 6 9 6 7 8 7 7 9 8 7 9 11 13 13 14 15 12 12 13 13 14 15 15 14 13 13 14 14 12 12 11 10 10 10 10 10
1 2 1 1 1 2 4 6 4 6 10 9 7 7 8 7 9 8 8 10 12 13 13 14 13 12 12 14 14 15 15 15 14 14 14 15 16 14 12 12 11 11 10 10 10
2 1 2 1 3 3 4 3 3 6 12 11 10 8 8 7 10 7 8 9 12 12 13 14 12 12 13 14 13 16 13 14 14 15 17 15 19 15 14 12 12 11 11 10 10
1 1 1 0 3 3 3 2 3 5 20 11 12 7 8 10 10 9 8 10 12 12 12 14 13 13 14 13 12 14 13 14 15 16 16 17 17 16 15 14 12 11 11 10 10
1 1 1 1 1 1 1 2 4 13 19 12 11 11 12 11 11 10 10 9 10 12 12 14 12 12 12 12 12 12 13 14 15 16 19 17 16 16 16 14 12 11 11 11 11
-0 0 1 1 3 0 1 4 14 18 12 13 13 12 13 13 13 12 12 12 13 15 15 14 13 12 11 13 12 13 14 18 19 20 19 18 18 15 14 13 12 11 10 12 12
0 0 2 1 1 0 2 9 17 13 13 12 12 13 14 13 14 14 13 14 12 14 16 16 17 13 11 12 13 13 14 17 22 22 20 18 19 16 13 12 12 12 12 12 12
0 4 4 2 1 1 6 15 15 13 11 12 12 15 15 13 14 15 15 15 13 12 15 16 16 13 13 12 11 14 15 13 16 24 21 18 17 15 14 13 13 12 13 13 12
4 5 5 2 1 3 9 13 11 9 9 9 13 12 15 14 15 15 16 14 14 12 13 14 16 14 13 12 13 13 12 16 17 22 24 19 19 16 15 13 12 12 12 12 12
4 8 4 1 2 6 12 11 10 8 7 10 12 12 12 13 13 16 15 14 13 13 11 13 15 16 14 15 15 14 15 16 15 17 21 23 18 15 13 13 13 12 12 12 12
6 11 4 1 8 8 11 10 7 9 7 8 9 10 11 11 12 14 14 12 11 11 13 12 14 18 16 15 15 15 15 15 17 20 19 19 16 14 13 12 13 12 12 12 12
9 7 4 3 12 11 10 9 8 9 9 9 10 9 9 11 13 12 12 11 10 10 12 12 14 21 17 17 16 16 15 14 15 17 18 19 16 14 14 13 13 12 13 12 13
8 13 10 7 7 10 11 11 11 8 8 8 9 9 10 12 10 12 12 10 9 9 8 9 12 15 17 16 15 17 16 15 14 18 16 17 14 13 13 12 12 12 12 13 13
7 12 10 14 12 11 9 9 11 11 8 8 10 10 10 13 12 12 10 10 9 9 8 9 14 13 12 13 14 14 15 14 14 14 16 14 14 13 12 12 11 11 12 12 12
8 9 9 12 10 11 11 12 12 10 9 10 11 9 9 12 11 12 11 10 11 10 10 9 14 13 15 12 12 14 14 15 14 13 13 13 13 10 10 11 12 11 10 10 12
5 5 7 10 12 12 12 12 12 11 10 8 9 10 10 9 8 8 7 9 9 11 13 12 13 15 17 13 14 17 14 13 13 12 13 15 12 10 11 11 11 11 11 11 11